DW9372 Weather Reports


time (UTC)temp
C
wind
direction
speed
KPH
gust
KPH
rain 1hr
cm
rain 24hr
cm
rain mn
cm
humidity
%
barometer
mb
20260506103102 7 92 0.0 0.0 0.00 1.78 1.78 98 1007.2
20260506102601 7 269 1.6 1.6 0.00 1.78 1.78 98 1007.6
20260506102058 7 268 0.0 1.6 0.18 1.78 1.78 98 1007.8
20260506101554 7 249 0.0 1.6 0.13 1.75 1.75 98 1007.9
20260506101051 7 290 0.0 3.2 0.13 1.75 1.75 97 1008.1
20260506100549 7 312 3.2 3.2 0.18 1.73 1.73 97 1008.1
20260506100047 7 314 3.2 4.8 0.30 1.73 1.73 97 1007.9
20260506095546 7 275 3.2 3.2 0.30 1.70 1.70 97 1008.0
20260506095042 7 281 1.6 3.2 0.18 1.68 1.68 97 1007.8
20260506094540 7 260 1.6 3.2 0.18 1.65 1.65 97 1007.8
20260506094038 7 264 1.6 3.2 0.13 1.63 1.63 97 1007.9
20260506093536 7 262 3.2 3.2 0.30 1.63 1.63 97 1008.0
20260506093033 7 254 0.0 1.6 0.13 1.57 1.57 97 1007.8
20260506092530 7 270 0.0 0.0 0.13 1.57 1.57 97 1007.7
20260506092027 7 256 0.0 1.6 0.00 1.55 1.55 97 1007.7
20260506091525 7 277 3.2 3.2 0.18 1.55 1.55 97 1007.6
20260506091022 7 300 3.2 3.2 0.18 1.55 1.55 97 1007.8
20260506090520 7 268 0.0 3.2 0.13 1.52 1.52 97 1007.9
20260506090016 7 12 4.8 9.7 0.13 1.52 1.52 97 1007.7
20260506085513 7 277 0.0 4.8 0.18 1.50 1.50 97 1007.8
20260506085009 7 254 0.0 1.6 0.30 1.50 1.50 97 1007.7
20260506084506 7 314 3.2 9.7 0.43 1.47 1.47 97 1007.7
20260506084002 7 289 6.4 6.4 0.30 1.42 1.42 97 1008.0
20260506083500 7 297 1.6 4.8 0.36 1.40 1.40 97 1007.7
20260506082957 7 342 3.2 6.4 0.30 1.37 1.37 97 1007.9
20260506082454 7 300 8.0 11.3 0.43 1.35 1.35 97 1007.6
20260506081949 7 282 1.6 4.8 0.43 1.30 1.30 98 1007.6
20260506081448 7 21 3.2 3.2 0.30 1.27 1.27 97 1007.8
20260506080945 7 314 3.2 4.8 0.30 1.22 1.22 97 1007.5
20260506080442 7 69 3.2 6.4 0.30 1.19 1.19 97 1007.5
20260506073426 8 327 3.2 4.8 0.30 0.94 0.94 98 1007.1
20260506072923 8 238 0.0 3.2 0.30 0.91 0.91 98 1006.9
20260506072420 8 338 1.6 3.2 0.30 0.89 0.89 98 1007.1
20260506071918 8 286 1.6 3.2 0.43 0.86 0.86 98 1007.1
20260506071416 8 257 0.0 3.2 0.48 0.84 0.84 97 1007.1
20260506070912 8 274 0.0 3.2 0.30 0.79 0.79 97 1007.3
20260506070409 8 273 1.6 4.8 0.30 0.76 0.76 97 1007.2
20260506062347 9 347 1.6 3.2 0.30 0.53 0.53 98 1007.2
20260506061842 9 244 1.6 3.2 0.30 0.51 0.51 98 1007.4
20260506061339 9 292 1.6 3.2 0.30 0.48 0.48 98 1007.4
20260506060837 9 241 0.0 3.2 0.30 0.46 0.46 98 1007.6
20260506060335 9 257 0.0 4.8 0.13 0.43 0.43 98 1007.5
20260506051307 9 313 1.6 1.6 0.00 0.28 0.28 98 1007.9
20260506050805 9 254 0.0 3.2 0.00 0.28 0.28 98 1008.2
20260506050302 9 265 1.6 1.6 0.18 0.28 0.28 98 1008.2
20260506044753 9 253 0.0 3.2 0.13 0.25 0.25 98 1008.3
20260506044250 9 250 0.0 0.0 0.18 0.23 0.23 97 1008.4
20260506043747 9 10 1.6 3.2 0.48 0.23 0.23 97 1008.3
20260506043244 9 287 1.6 3.2 0.13 0.15 0.15 97 1008.3
20260506042743 10 268 3.2 3.2 0.30 0.15 0.15 97 1008.2
20260506042242 10 255 1.6 3.2 0.36 0.13 0.13 97 1008.6
20260506041739 10 257 0.0 3.2 0.30 0.10 0.10 97 1008.5
20260506041235 10 264 1.6 3.2 0.43 0.08 0.08 97 1008.6
20260506040728 10 220 0.0 0.0 0.48 0.05 0.05 97 1008.7
20260506040225 10 256 0.0 1.6 0.30 0.00 0.00 97 1008.6
20260506035721 10 257 0.0 1.6 0.13 1.65 1.65 97 1008.9
20260506035218 10 251 0.0 1.6 0.18 1.63 1.63 97 1008.8
20260506034715 10 143 1.6 1.6 0.18 1.63 1.63 97 1008.9
20260506034212 10 258 1.6 3.2 0.13 1.60 1.60 97 1008.9
20260506033710 10 280 1.6 3.2 0.30 1.60 1.60 97 1009.0
20260506033207 10 252 1.6 3.2 0.30 1.57 1.57 97 1009.4
20260506032703 10 252 0.0 3.2 0.30 1.55 1.55 97 1009.6
20260506032200 10 251 0.0 3.2 0.30 1.52 1.52 97 1009.2
20260506031651 10 255 1.6 1.6 0.30 1.50 1.50 97 1009.2
20260506031148 10 258 1.6 1.6 0.48 1.47 1.47 97 1009.2
20260506030647 10 238 0.0 3.2 0.13 1.42 1.42 97 1009.0
20260506030144 10 251 0.0 0.0 0.30 1.40 1.40 97 1008.6
20260506025641 10 276 0.0 3.2 0.30 1.37 1.37 97 1008.8
20260506025136 10 243 0.0 1.6 0.18 1.35 1.35 97 1008.9
20260506024634 10 256 0.0 0.0 0.30 1.32 1.32 97 1008.7
20260506024130 10 267 1.6 1.6 0.30 1.32 1.32 97 1008.6
20260506023627 10 292 3.2 4.8 0.00 1.27 1.27 97 1008.5
20260506023124 10 290 3.2 3.2 0.13 1.27 1.27 97 1008.5
20260506022621 10 246 0.0 6.4 0.43 1.27 1.27 97 1008.4
20260506022119 10 259 0.0 3.2 0.48 1.24 1.24 97 1008.6
20260506021616 10 250 0.0 0.0 0.13 1.17 1.17 97 1008.7
20260506021114 10 263 0.0 1.6 0.18 1.14 1.14 96 1008.8
20260506020610 10 320 3.2 3.2 0.18 1.14 1.14 96 1008.5
20260506020108 10 327 1.6 1.6 0.30 1.12 1.12 96 1008.6
20260506015605 10 251 0.0 1.6 0.13 1.09 1.09 96 1008.2
20260506015102 10 85 0.0 1.6 0.00 1.07 1.07 96 1008.4
20260506014600 10 272 0.0 0.0 0.00 1.07 1.07 96 1008.5
20260506014055 10 248 0.0 1.6 0.00 1.07 1.07 96 1008.5
20260506013554 10 55 1.6 1.6 0.18 1.07 1.07 96 1008.2
20260506013050 10 95 1.6 1.6 0.30 1.07 1.07 96 1008.3
20260506012546 10 294 0.0 4.8 0.13 1.04 1.04 96 1008.2
20260506012043 10 235 0.0 0.0 0.18 1.02 1.02 96 1008.3
20260506011541 10 308 1.6 3.2 0.00 0.99 0.99 96 1008.1
20260506011036 10 287 0.0 3.2 0.00 0.99 0.99 96 1008.1
20260506010531 10 260 1.6 1.6 0.00 0.99 0.99 96 1008.2
20260506010027 10 259 0.0 4.8 0.13 0.99 0.99 96 1008.2
20260506005524 10 209 1.6 1.6 0.00 0.97 0.97 95 1008.2
20260506005020 10 269 0.0 4.8 0.18 0.97 0.97 95 1008.2
20260506004517 10 183 0.0 3.2 0.30 0.97 0.97 95 1008.0
20260506004014 11 76 1.6 3.2 0.43 0.94 0.94 95 1008.1
20260506003510 11 249 0.0 0.0 0.61 0.91 0.91 95 1008.1
20260506003006 11 278 1.6 3.2 0.48 0.86 0.86 95 1008.2
20260506002503 11 221 1.6 1.6 0.36 0.81 0.81 95 1008.4
20260506001958 11 247 0.0 0.0 0.30 0.79 0.79 94 1008.4
20260506001455 11 231 0.0 1.6 0.43 0.76 0.76 94 1008.2
20260506000952 11 264 0.0 3.2 0.71 0.71 0.71 94 1008.4
20260506000450 11 41 1.6 6.4 2.16 0.69 0.69 93 1008.7
20260505235947 12 276 3.2 12.9 2.46 0.58 0.58 92 1008.5
20260505235445 12 260 16.1 22.5 1.37 0.30 0.30 91 1008.9
20260505234941 13 297 4.8 11.3 0.30 0.13 0.13 91 1008.3
20260505234439 13 53 1.6 3.2 0.30 0.08 0.08 91 1007.3
20260505233935 13 321 1.6 6.4 0.30 0.08 0.08 91 1007.5
20260505233433 13 270 3.2 4.8 0.00 0.03 0.03 91 1007.5
20260505232930 13 261 0.0 3.2 0.00 0.03 0.03 90 1007.5
20260505232428 14 343 1.6 4.8 0.00 0.03 0.03 90 1007.4
20260505231925 14 264 0.0 1.6 0.00 0.03 0.03 90 1007.4
20260505231422 14 252 1.6 3.2 0.00 0.03 0.03 90 1007.3
20260505230920 14 241 0.0 3.2 0.00 0.03 0.03 90 1007.4
20260505230418 14 239 0.0 0.0 0.00 0.03 0.03 89 1007.2
20260505225914 14 272 0.0 1.6 0.00 0.03 0.03 89 1007.5
20260505225411 15 282 1.6 3.2 0.00 0.03 0.03 88 1007.4
20260505224906 15 285 0.0 0.0 0.00 0.03 0.03 88 1007.6
20260505224404 15 229 0.0 3.2 0.00 0.03 0.03 88 1007.8
20260505223901 15 262 0.0 1.6 0.00 0.03 0.03 88 1007.8
20260505223358 15 293 0.0 0.0 0.00 0.03 0.03 88 1007.8
20260505222854 15 318 3.2 6.4 0.00 0.03 0.03 88 1007.8
20260505222350 15 325 3.2 4.8 0.00 0.03 0.03 87 1007.9
20260505221847 15 261 0.0 4.8 0.00 0.03 0.03 87 1007.7
20260505221344 15 27 6.4 6.4 0.00 0.03 0.03 87 1007.8
20260505220841 15 191 1.6 4.8 0.00 0.03 0.03 87 1007.9
20260505220338 15 53 1.6 6.4 0.00 0.03 0.03 86 1007.7
20260505215836 16 319 9.7 12.9 0.00 0.03 0.03 86 1008.1
20260505215334 16 274 1.6 1.6 0.00 0.03 0.03 86 1007.9
20260505214831 16 268 0.0 3.2 0.00 0.03 0.03 85 1007.6
20260505214329 16 283 0.0 4.8 0.00 0.03 0.03 85 1007.5
20260505213825 16 311 4.8 9.7 0.00 0.03 0.03 86 1007.6
20260505213324 16 290 1.6 3.2 0.00 0.03 0.03 86 1007.3
20260505212819 16 229 0.0 0.0 0.00 0.03 0.03 85 1007.3
20260505212317 16 272 0.0 0.0 0.00 0.03 0.03 81 1007.3
20260505211812 16 270 0.0 1.6 0.18 0.03 0.03 79 1007.3
20260505211310 17 246 1.6 6.4 0.18 0.03 0.03 76 1007.5
20260505210806 17 201 9.7 14.5 0.00 0.00 0.00 72 1007.4
20260505210303 18 228 3.2 6.4 0.00 0.00 0.00 70 1007.5
20260505205800 18 238 1.6 4.8 0.00 0.00 0.00 69 1007.4
20260505205259 18 237 0.0 1.6 0.00 0.00 0.00 68 1007.4
20260505204755 18 262 0.0 3.2 0.00 0.00 0.00 67 1006.9
20260505204253 18 260 3.2 3.2 0.00 0.00 0.00 65 1006.8
20260505203750 18 251 0.0 1.6 0.00 0.00 0.00 67 1007.1
20260505203247 18 248 0.0 1.6 0.00 0.00 0.00 67 1007.0
20260505202743 18 267 1.6 1.6 0.00 0.00 0.00 67 1007.0
20260505202239 18 285 1.6 3.2 0.00 0.00 0.00 67 1007.1
20260505201735 18 271 0.0 4.8 0.00 0.00 0.00 66 1007.2
20260505201233 18 265 0.0 4.8 0.00 0.00 0.00 67 1007.1
20260505200732 18 281 4.8 6.4 0.00 0.00 0.00 64 1007.2
20260505200228 19 298 4.8 4.8 0.00 0.00 0.00 63 1007.2
20260505195723 18 236 0.0 3.2 0.00 0.00 0.00 65 1007.1
20260505195221 18 255 1.6 3.2 0.00 0.00 0.00 66 1007.3
20260505194719 18 276 1.6 3.2 0.00 0.00 0.00 66 1007.3
20260505194215 18 313 3.2 4.8 0.00 0.00 0.00 66 1007.3
20260505193711 18 255 1.6 3.2 0.00 0.00 0.00 68 1007.3
20260505193208 18 280 3.2 4.8 0.00 0.00 0.00 68 1007.5
20260505192707 18 260 1.6 6.4 0.00 0.00 0.00 68 1007.8
20260505192203 17 280 6.4 6.4 0.00 0.00 0.00 68 1008.0
20260505191701 18 270 3.2 9.7 0.00 0.00 0.00 67 1007.9
20260505191159 18 260 6.4 11.3 0.00 0.00 0.00 64 1008.0
20260505190655 18 332 6.4 11.3 0.00 0.00 0.00 62 1008.1
20260505190150 19 332 3.2 6.4 0.00 0.00 0.00 62 1007.8
20260505185647 19 243 4.8 6.4 0.00 0.00 0.00 61 1007.6
20260505185143 19 224 1.6 4.8 0.00 0.00 0.00 61 1007.7
20260505184640 19 309 3.2 6.4 0.00 0.00 0.00 61 1007.9
20260505184137 20 294 4.8 9.7 0.00 0.00 0.00 59 1008.0
20260505183634 20 217 8.0 9.7 0.00 0.00 0.00 59 1007.6
20260505183131 19 242 1.6 4.8 0.00 0.00 0.00 60 1007.5
20260505182627 20 293 3.2 6.4 0.00 0.00 0.00 60 1007.8
20260505182124 20 253 4.8 9.7 0.00 0.00 0.00 59 1007.7
20260505181621 20 243 1.6 9.7 0.00 0.00 0.00 59 1007.7
20260505181118 20 283 3.2 11.3 0.00 0.00 0.00 59 1007.4
20260505180614 20 296 6.4 12.9 0.00 0.00 0.00 58 1007.6
20260505180112 20 272 4.8 11.3 0.00 0.00 0.00 59 1007.4
20260505175607 20 240 6.4 16.1 0.00 0.00 0.00 57 1007.5
20260505175104 20 253 6.4 16.1 0.00 0.00 0.00 58 1007.4
20260505174601 20 250 6.4 12.9 0.00 0.00 0.00 58 1007.3
20260505174057 20 293 6.4 12.9 0.00 0.00 0.00 57 1007.3
20260505173554 20 237 8.0 12.9 0.00 0.00 0.00 56 1007.3
20260505173050 20 263 6.4 6.4 0.00 0.00 0.00 57 1007.2
20260505172548 20 286 6.4 20.9 0.00 0.00 0.00 56 1007.3
20260505172044 20 230 1.6 6.4 0.00 0.00 0.00 57 1007.3
20260505171539 20 249 3.2 6.4 0.00 0.00 0.00 57 1007.3
20260505171036 20 272 3.2 14.5 0.00 0.00 0.00 58 1007.2
20260505170533 20 271 4.8 9.7 0.00 0.00 0.00 57 1007.2
20260505170030 20 265 8.0 16.1 0.00 0.00 0.00 56 1007.4
20260505165525 21 230 8.0 24.1 0.00 0.00 0.00 55 1007.3
20260505165021 21 301 6.4 16.1 0.00 0.00 0.00 55 1007.2
20260505164517 21 280 17.7 22.5 0.00 0.00 0.00 52 1007.1
20260505164015 21 241 4.8 16.1 0.00 0.00 0.00 52 1007.2
20260505163513 22 253 4.8 17.7 0.00 0.00 0.00 52 1007.0
20260505163009 22 244 4.8 9.7 0.00 0.00 0.00 51 1007.2
20260505162503 22 282 6.4 12.9 0.00 0.00 0.00 54 1007.0
20260505162000 22 214 6.4 12.9 0.00 0.00 0.00 52 1006.8
20260505161456 22 218 3.2 11.3 0.00 0.00 0.00 50 1006.8
20260505160954 21 303 12.9 24.1 0.00 0.00 0.00 52 1006.8
20260505160452 21 240 3.2 17.7 0.00 0.00 0.00 54 1006.5
20260505152928 20 228 4.8 12.9 0.00 0.00 0.00 59 1007.2
20260505152425 20 218 9.7 14.5 0.00 0.00 0.00 58 1007.3
20260505151920 20 338 6.4 16.1 0.00 0.00 0.00 58 1007.2
20260505151416 20 263 12.9 14.5 0.00 0.00 0.00 58 1007.2
20260505150914 20 240 4.8 22.5 0.00 0.00 0.00 59 1007.2
20260505150410 19 247 9.7 16.1 0.00 0.00 0.00 59 1007.3
20260505140329 17 246 8.0 16.1 0.00 0.00 0.00 68 1006.8
20260505130252 16 228 3.2 11.3 0.00 0.00 0.00 72 1006.4
20260505124742 16 215 1.6 4.8 0.00 0.00 0.00 72 1006.2
20260505124239 16 190 3.2 9.7 0.00 0.00 0.00 72 1006.3
20260505123735 16 244 0.0 1.6 0.00 0.00 0.00 73 1006.1
20260505123232 16 224 3.2 9.7 0.00 0.00 0.00 71 1006.4
20260505122728 16 222 3.2 4.8 0.00 0.00 0.00 70 1006.4
20260505122225 16 242 0.0 11.3 0.00 0.00 0.00 70 1006.3
20260505121716 16 226 1.6 3.2 0.00 0.00 0.00 70 1006.4
20260505121213 17 238 3.2 6.4 0.00 0.00 0.00 67 1006.7
20260505120710 17 239 3.2 6.4 0.00 0.00 0.00 66 1006.6
20260505120205 17 173 4.8 9.7 0.00 0.00 0.00 65 1006.2
20260505115659 17 238 3.2 12.9 0.00 0.00 0.00 65 1006.4
20260505115157 17 227 1.6 11.3 0.00 0.00 0.00 64 1006.5
20260505114654 17 200 4.8 11.3 0.00 0.00 0.00 63 1006.2
20260505114150 17 191 6.4 11.3 0.00 0.00 0.00 64 1006.1
20260505113647 17 299 3.2 9.7 0.00 0.00 0.00 63 1006.3
20260505113143 17 263 4.8 4.8 0.00 0.00 0.00 63 1006.1
20260505112639 17 255 8.0 11.3 0.00 0.00 0.00 63 1006.1
20260505112137 17 235 4.8 9.7 0.00 0.00 0.00 63 1005.8
20260505111631 17 175 9.7 17.7 0.00 0.00 0.00 62 1006.1
20260505111128 17 262 3.2 14.5 0.00 0.00 0.00 63 1005.9
20260505110624 17 217 6.4 12.9 0.00 0.00 0.00 63 1005.9
20260505110121 17 257 4.8 12.9 0.00 0.00 0.00 62 1005.6